Laramie, WY

5:45 AM MST on January 16, 2018 (GMT -0700)
Laramie Regional

Weather History for KLAR - October, 2012

Change the Weather History Date:

Tuesday, October 30, 2012

  Actual Average Record
Temperature  
Mean Temperature 46 °F 37 °F  
Max Temperature 59 °F 50 °F 69 °F (1950)
Min Temperature 33 °F 24 °F -18 °F (1993)
Degree Days  
Heating Degree Days 19 28  
Month to date heating degree days 710 687  
Since 1 July heating degree days 1045 1212  
Cooling Degree Days 0 0  
Month to date cooling degree days 0 0  
Year to date cooling degree days 211 67  
Moisture  
Dew Point 29 °F    
Average Humidity 56    
Maximum Humidity 82    
Minimum Humidity 30    
Precipitation  
Precipitation 0.00 in 0.02 in 0.27 in (1987)
Month to date precipitation 1.01 0.78  
Year to date precipitation 5.90 10.04  
Sea Level Pressure  
Sea Level Pressure 30.07 in    
Wind  
Wind Speed 12 mph (WSW)    
Max Wind Speed 25 mph    
Max Gust Speed 30 mph    
Visibility 10 miles    
Events      
T = Trace of Precipitation, MM = Missing Value Source: NWS Daily Summary

Daily Weather History Graph

Daily Weather History Graph

Search for Another Location

Airport or City:

Trip Planner

Search our weather history database for the weather conditions in past years. The results will help you decide how hot, cold, wet, or windy it might be!

Date:

Astronomy

Oct. 30, 2012 Rise Set
Actual Time 7:32 AM MDT 5:59 PM MDT
Civil Twilight 7:03 AM MDT 6:28 PM MDT
Nautical Twilight 6:31 AM MDT 7:00 PM MDT
Astronomical Twilight 5:59 AM MDT 7:32 PM MDT
Moon 6:30 PM MDT (10/30) 8:22 AM MDT (10/30)
Length of Visible Light 11h 24m
Length of Day
10h 27m
Full, 99% of the Moon is Illuminated
Oct 30
Full
Nov 6
Last Quarter
Nov 13
New
Nov 20
First Quarter
Nov 28
Full

Hourly Weather History & Observations

Time (MDT) Temp. Windchill Dew Point Humidity Pressure Visibility Wind Dir Wind Speed Gust Speed Precip Events Conditions
12:53 AM 39.9 °F 35.8 °F 30.0 °F 68% 30.04 in 10.0 mi West 5.8 mph - N/A   Clear
1:53 AM 39.9 °F 33.9 °F 30.9 °F 70% 30.06 in 10.0 mi WSW 9.2 mph - N/A   Clear
2:53 AM 36.0 °F 29.0 °F 30.0 °F 79% 30.08 in 10.0 mi WSW 9.2 mph - N/A   Clear
3:53 AM 34.0 °F 26.6 °F 28.9 °F 82% 30.10 in 10.0 mi SW 9.2 mph - N/A   Clear
5:53 AM 36.0 °F 29.0 °F 28.9 °F 76% 30.10 in 10.0 mi WSW 9.2 mph - N/A   Clear
6:53 AM 37.9 °F 30.0 °F 28.9 °F 70% 30.11 in 10.0 mi SW 12.7 mph - N/A   Clear
7:53 AM 37.0 °F 29.8 °F 28.9 °F 73% 30.14 in 10.0 mi WSW 10.4 mph - N/A   Clear
8:53 AM 45.0 °F 39.3 °F 30.9 °F 58% 30.09 in 10.0 mi WSW 11.5 mph - N/A   Clear
9:53 AM 50.0 °F - 30.9 °F 48% 30.06 in 10.0 mi WSW 12.7 mph - N/A   Clear
10:53 AM 53.1 °F - 32.0 °F 45% 30.05 in 10.0 mi West 17.3 mph - N/A   Clear
11:53 AM 55.0 °F - 32.0 °F 42% 30.03 in 10.0 mi West 11.5 mph - N/A   Clear
12:53 PM 57.9 °F - 28.0 °F 32% 30.00 in 10.0 mi West 20.7 mph 25.3 mph N/A   Clear
1:53 PM 59.0 °F - 28.0 °F 31% 29.97 in 10.0 mi WNW 19.6 mph 25.3 mph N/A   Clear
2:53 PM 57.9 °F - 26.1 °F 30% 30.00 in 10.0 mi WNW 23.0 mph 28.8 mph N/A   Clear
3:53 PM 55.9 °F - 26.1 °F 32% 30.04 in 10.0 mi WNW 20.7 mph - N/A   Clear
4:53 PM 54.0 °F - 25.0 °F 33% 30.06 in 10.0 mi WNW 17.3 mph - N/A   Clear
5:53 PM 48.0 °F - 30.0 °F 50% 30.08 in 10.0 mi West 5.8 mph - N/A   Clear
6:53 PM 41.0 °F 33.9 °F 30.9 °F 67% 30.11 in 10.0 mi West 12.7 mph - N/A   Clear
7:53 PM 43.0 °F 36.4 °F 30.0 °F 60% 30.11 in 10.0 mi WSW 12.7 mph - N/A   Clear
8:53 PM 39.0 °F 32.8 °F 28.9 °F 67% 30.09 in 10.0 mi West 9.2 mph - N/A   Clear
9:53 PM 39.9 °F 36.7 °F 27.0 °F 60% 30.07 in 10.0 mi WSW 4.6 mph - N/A   Clear
10:53 PM 39.0 °F 34.8 °F 27.0 °F 62% 30.06 in 10.0 mi South 5.8 mph - N/A   Clear
11:53 PM 36.0 °F 28.5 °F 27.0 °F 70% 30.05 in 10.0 mi SSW 10.4 mph - N/A   Clear